[[{"header":{"parameterUnit":"m.s-1","parameterCategory":1,"la1":30.2991,"la2":30.254,"lo1":-89.0895,"lo2":-89.0444,"dy":0.0017,"dx":0.0017,"nx":28,"ny":28,"refTime":"2025-03-31T03:00:00:Z","depth":0,"parameterNumber":2,"parameterNumberName":"U-component_of_WINDS"},"data":[0,0,0,0,0,0,0,0,0,0,0,0,0,0,0,0,0,0,0,0,0,0,0,0,0,0,0,0,0,0,0,0,0,0,0,0,0,0,0,0,0,0,0,0,0,0,0,0,0,0,0,0,0,0,0,0,0,0,2.0346,2.0347,0,2.0365,2.0365,2.0366,2.0335,2.0334,2.0333,2.0332,2.0351,2.0353,2.0354,0,0,0,0,0,0,0,0,0,0,0,0,0,2.0284,2.0286,2.0346,2.0347,2.0347,2.0365,2.0365,2.0366,2.0336,2.0334,2.0333,2.0332,2.0351,2.0352,2.0354,0,0,0,0,0,0,0,0,0,0,0,0,0,2.0308,2.0286,2.0346,2.0334,2.0333,2.0365,2.0365,2.0366,2.0336,2.0334,2.0333,2.0331,2.035,2.0352,2.0354,2.0399,0,0,2.0361,2.0362,0,0,0,0,0,0,0,0,2.0307,2.031,2.0336,2.0335,2.0334,2.0346,2.035,2.0377,2.0336,2.0335,2.0332,2.033,2.0351,2.0353,2.036,2.04,2.0401,2.0361,2.0363,2.0364,2.0364,0,0,0,0,0,0,0,2.0305,2.0309,2.0354,2.0336,2.0335,2.0328,2.0329,2.0355,2.0351,2.0335,2.0333,2.0335,2.035,2.0358,2.036,2.0401,2.0361,2.0363,2.0365,2.0366,2.0479,2.0481,0,0,0,0,0,0,2.0305,2.0308,2.0353,2.0354,2.0316,2.033,2.0332,2.0344,2.0351,2.035,2.0337,2.0334,2.0355,2.0357,2.0361,2.0414,2.0364,2.0366,2.0367,2.0478,2.048,2.0482,0,0,0,0,0,0,2.0304,2.0309,2.0352,2.0331,2.0336,2.0333,2.0347,2.0345,2.0353,2.0352,2.0351,2.0345,2.0354,2.0357,2.039,2.0414,2.0367,2.0369,2.0476,2.0478,2.0481,2.052,0,0,0,0,0,0,2.0302,2.0309,2.0326,2.0331,2.0337,2.0382,2.0348,2.0347,2.0357,2.0353,2.036,2.036,2.0353,2.0387,2.0392,2.0416,2.037,2.0474,2.0477,2.048,2.0517,2.0524,2.053,0,0,0,0,0,2.03,2.0336,2.0327,2.0333,2.0358,2.0383,2.0386,2.0377,2.0359,2.0376,2.0376,2.036,2.041,2.039,2.0396,2.0421,2.0472,2.0476,2.048,2.0514,2.0522,2.053,0,0,0,0,0,0,2.0333,2.0337,2.0326,2.0365,2.0374,2.0378,2.0399,2.0387,2.0401,2.0397,2.0385,2.0387,2.0422,2.0425,2.0402,2.0465,2.0438,2.0443,2.0462,2.047,2.0477,2.0475,2.0372,0,0,0,0,0,2.0345,2.0365,2.0367,2.0401,2.0406,2.0402,2.0412,2.0405,2.0414,2.0417,2.0419,2.0428,2.0446,2.0458,2.0475,2.0517,2.0518,2.0537,2.0544,2.0549,2.0554,2.0577,2.0585,2.0494,2.0494,2.0494,0,0,2.037,2.0374,2.0387,2.0408,2.0414,2.0435,2.0405,2.0429,2.0444,2.0421,2.0452,2.0454,2.0463,2.05,2.0517,2.0504,2.0579,2.0554,2.0558,2.056,2.0581,2.059,2.0598,2.0497,2.0496,2.0496,0,0,2.0426,2.0431,2.046,2.0467,2.0477,2.0474,2.0481,2.0487,2.0487,2.0518,2.0501,2.0519,2.055,2.0558,2.0566,2.0625,2.0611,2.0631,2.0665,2.0688,2.0695,2.0701,2.0723,2.0731,2.0635,2.0636,2.0636,0,2.0455,2.0486,2.0477,2.0502,2.0511,2.0491,2.0521,2.0528,2.0542,2.055,2.0534,2.0573,2.0578,2.0618,2.0632,2.0639,2.0647,2.063,2.0695,2.0701,2.0706,2.0727,2.0735,2.0638,2.0638,2.0637,2.0637,0,2.0522,2.0544,2.0567,2.0582,2.0594,2.0621,2.0616,2.0629,2.0621,2.062,2.0652,2.0657,2.0674,2.0683,2.0675,2.0722,2.0713,2.0696,2.0669,2.0718,2.0737,2.0745,2.0641,2.064,2.064,2.0639,0,0,2.0599,2.0609,2.0617,2.0624,2.0634,2.0651,2.0677,2.0695,2.0707,2.0717,2.0739,2.0767,2.0752,2.0761,2.0753,2.0773,2.082,2.0754,2.0754,2.0766,2.0873,2.0885,2.0894,2.0811,2.0813,2.0814,2.0872,0,2.0655,2.0701,2.0694,2.0738,2.0759,2.074,2.0763,2.0772,2.0772,2.0789,2.0788,2.0808,2.0786,2.0792,2.081,2.0811,2.0842,2.0806,2.0832,2.0833,2.083,2.0904,2.0918,2.0972,2.0879,2.0881,2.0881,0,2.0726,2.074,2.0787,2.0794,2.0803,2.0824,2.0839,2.0856,2.0865,2.0864,2.0874,2.0863,2.089,2.0862,2.0899,2.0875,2.0885,2.0887,2.0889,2.0891,2.086,2.0909,2.099,2.0998,2.0893,2.0892,2.0891,0,2.0778,2.0809,2.0841,2.0847,2.0856,2.0872,2.0876,2.0884,2.0895,2.0909,2.0916,2.0932,2.0941,2.0954,2.0948,2.0929,2.0986,2.0958,2.0986,2.0986,2.0999,2.0998,2.1083,2.1005,2.1005,2.1005,2.1004,0,2.0841,2.0871,2.0865,2.0884,2.0917,2.0908,2.0941,2.0943,2.095,2.097,2.0955,2.0974,2.0964,2.0983,2.0978,2.101,2.1014,2.1013,2.1012,2.1015,2.1015,2.1021,2.1017,2.1007,2.1006,2.1006,2.1005,0,2.0905,2.0902,2.0936,2.0942,2.0944,2.0968,2.0973,2.0991,2.099,2.1016,2.1021,2.1019,2.104,2.1035,2.1058,2.1055,2.1094,2.1088,2.1092,2.109,2.1118,2.1116,2.121,2.1222,2.1136,2.1137,2.1138,0,2.0946,2.0968,2.0977,2.0989,2.0995,2.1015,2.1027,2.1019,2.1032,2.1044,2.1062,2.1081,2.1097,2.1131,2.1131,2.1149,2.1143,2.1175,2.1145,2.1148,2.1144,2.1143,2.1145,2.1181,2.1182,2.1182,2.1183,0,2.1018,2.1016,2.1033,2.1051,2.1065,2.1078,2.109,2.1101,2.1094,2.1109,2.1131,2.1143,2.1166,2.1186,2.1202,2.1207,2.1194,2.1192,2.12,2.1203,2.1204,2.1205,2.1108,2.119,2.1189,2.1189,2.1189,2.1188,2.1072,2.1091,2.1101,2.1121,2.1129,2.114,2.1158,2.116,2.1178,2.1197,2.1191,2.1216,2.1225,2.1245,2.1252,2.1271,2.1259,2.1269,2.1272,2.1275,2.1279,2.1201,2.1274,2.1273,2.1273,2.1273,2.1273,0,2.1144,2.1149,2.1168,2.1185,2.1201,2.1188,2.1201,2.1215,2.1237,2.1247,2.1263,2.1288,2.1307,2.1309,2.1328,2.1343,2.1337,2.1348,2.1346,2.1348,2.1288,2.128,2.1352,2.1352,2.1352,2.1352,2.1352,2.1352,2.1183,2.1216,2.1215,2.1251,2.1256,2.128,2.1289,2.1299,2.1307,2.1336,2.1352,2.1354,2.1361,2.138,2.1397,2.1397,2.1405,2.1417,2.1415,2.136,2.1352,2.1344,2.1337,2.1419,2.1419,2.1473,2.1474,2.1474]},{"header":{"parameterUnit":"m.s-1","parameterCategory":1,"la1":30.2991,"la2":30.254,"lo1":-89.0895,"lo2":-89.0444,"dy":0.0017,"dx":0.0017,"nx":28,"ny":28,"refTime":"2025-03-31T03:00:00:Z","depth":0,"parameterNumber":3,"parameterNumberName":"V-component_of_WINDS"},"data":[0,0,0,0,0,0,0,0,0,0,0,0,0,0,0,0,0,0,0,0,0,0,0,0,0,0,0,0,0,0,0,0,0,0,0,0,0,0,0,0,0,0,0,0,0,0,0,0,0,0,0,0,0,0,0,0,0,0,4.1822,4.1822,0,4.1871,4.1871,4.1872,4.1841,4.184,4.1838,4.1837,4.1884,4.1886,4.1889,0,0,0,0,0,0,0,0,0,0,0,0,0,4.17,4.1702,4.1822,4.1822,4.1823,4.187,4.1871,4.1872,4.1841,4.184,4.1838,4.1836,4.1883,4.1886,4.1889,0,0,0,0,0,0,0,0,0,0,0,0,0,4.1751,4.1703,4.1822,4.1814,4.1813,4.187,4.1871,4.1872,4.1842,4.184,4.1837,4.1835,4.1882,4.1886,4.1889,4.1956,0,0,4.1901,4.1903,0,0,0,0,0,0,0,0,4.1748,4.1755,4.1814,4.1814,4.1814,4.1848,4.1845,4.19,4.1842,4.1831,4.1837,4.1834,4.1873,4.1878,4.1891,4.1958,4.196,4.1902,4.1904,4.1906,4.1907,0,0,0,0,0,0,0,4.1744,4.1753,4.1841,4.1815,4.1815,4.1807,4.1812,4.1855,4.1863,4.1832,4.183,4.1836,4.1873,4.1888,4.1892,4.1961,4.1901,4.1905,4.1907,4.1909,4.2086,4.2088,0,0,0,0,0,0,4.1742,4.175,4.1839,4.1842,4.1775,4.1811,4.1816,4.1839,4.1863,4.1864,4.1838,4.1834,4.1882,4.1888,4.1894,4.1974,4.1906,4.1909,4.1911,4.2083,4.2086,4.2089,0,0,0,0,0,0,4.1739,4.175,4.1837,4.1796,4.1806,4.1815,4.1841,4.1841,4.1856,4.1867,4.1868,4.1852,4.1881,4.1888,4.1941,4.1976,4.1911,4.1914,4.208,4.2084,4.2087,4.2136,0,0,0,0,0,0,4.1736,4.1749,4.1776,4.1797,4.1809,4.1885,4.1843,4.1844,4.1863,4.1859,4.1881,4.1882,4.188,4.1936,4.1945,4.198,4.1917,4.2077,4.2082,4.2086,4.2131,4.214,4.2148,0,0,0,0,0,4.1732,4.1786,4.1777,4.1788,4.1842,4.1887,4.1894,4.1891,4.1866,4.1892,4.1899,4.1882,4.197,4.1941,4.1952,4.1988,4.2075,4.2081,4.2086,4.2127,4.2138,4.2148,0,0,0,0,0,0,4.1767,4.1789,4.1779,4.1842,4.1863,4.1882,4.1914,4.1903,4.193,4.1925,4.1919,4.1924,4.198,4.1989,4.1956,4.2054,4.2019,4.2026,4.2046,4.2057,4.2066,4.2063,4.1921,0,0,0,0,0,4.1783,4.1819,4.1835,4.1889,4.19,4.1906,4.1925,4.1921,4.1942,4.1951,4.1962,4.1983,4.2015,4.2036,4.2067,4.2132,4.2136,4.2162,4.217,4.2177,4.2185,4.222,4.2232,4.2106,4.2106,4.2106,0,0,4.1814,4.183,4.1853,4.1897,4.1913,4.195,4.1913,4.1954,4.1981,4.1956,4.2008,4.2017,4.2039,4.2099,4.2126,4.2108,4.222,4.2184,4.219,4.2193,4.2227,4.2239,4.225,4.211,4.2109,4.2109,0,0,4.1891,4.1907,4.1954,4.1972,4.1997,4.2,4.2011,4.2032,4.2038,4.209,4.2072,4.2104,4.216,4.2177,4.2193,4.2277,4.2262,4.2287,4.2333,4.2368,4.2378,4.2387,4.2418,4.2429,4.2294,4.2294,4.2294,0,4.1927,4.1984,4.198,4.2022,4.2042,4.2023,4.2071,4.2087,4.212,4.2134,4.2114,4.2185,4.2198,4.2262,4.2283,4.2296,4.2309,4.2285,4.2377,4.2386,4.2394,4.2423,4.2435,4.2297,4.2297,4.2296,4.2296,0,4.2027,4.2066,4.2101,4.2136,4.2159,4.2204,4.2206,4.223,4.2224,4.2229,4.2282,4.2298,4.2332,4.2346,4.234,4.241,4.2398,4.2378,4.2342,4.2409,4.2437,4.2448,4.2301,4.23,4.2299,4.2298,0,0,4.2128,4.2161,4.2174,4.219,4.2216,4.2246,4.229,4.2324,4.2345,4.2369,4.2405,4.2453,4.2435,4.2453,4.2449,4.2479,4.2547,4.2455,4.2456,4.2473,4.2625,4.2642,4.2655,4.2536,4.2539,4.254,4.2624,0,4.2208,4.2286,4.2284,4.2356,4.2393,4.2375,4.2413,4.2433,4.244,4.2471,4.2476,4.2512,4.2484,4.2495,4.2525,4.2532,4.2577,4.2526,4.257,4.2572,4.2567,4.2669,4.2686,4.2764,4.2635,4.2636,4.2638,0,4.2311,4.234,4.2417,4.2439,4.2454,4.2489,4.2521,4.2551,4.2573,4.2575,4.2596,4.2587,4.2631,4.2593,4.2654,4.2619,4.2637,4.2643,4.2646,4.2651,4.261,4.2678,4.2789,4.2801,4.2655,4.2653,4.2652,0,4.2379,4.2436,4.249,4.2504,4.2531,4.2556,4.2568,4.2589,4.261,4.2637,4.2651,4.2682,4.2699,4.2724,4.2723,4.2696,4.2785,4.2747,4.2788,4.2788,4.2808,4.2807,4.2925,4.2818,4.2817,4.2817,4.2817,0,4.2469,4.2516,4.2521,4.2554,4.2607,4.2604,4.2656,4.2666,4.2684,4.2718,4.2704,4.2736,4.2733,4.2765,4.2764,4.2815,4.2822,4.2825,4.2825,4.2827,4.2827,4.284,4.2835,4.282,4.282,4.2819,4.2819,0,4.2553,4.2559,4.2616,4.2638,4.2644,4.2682,4.27,4.2731,4.2736,4.278,4.279,4.2797,4.2834,4.2836,4.2878,4.2877,4.294,4.2932,4.2933,4.2932,4.2973,4.297,4.3104,4.3122,4.3002,4.3003,4.3004,0,4.2611,4.2648,4.2674,4.2696,4.2711,4.2747,4.2769,4.2767,4.279,4.2819,4.2847,4.2883,4.2912,4.2972,4.2981,4.3013,4.3007,4.3052,4.3012,4.3014,4.3009,4.3008,4.3012,4.306,4.3062,4.3063,4.3064,0,4.2713,4.2714,4.2747,4.2782,4.2809,4.2835,4.286,4.2879,4.2879,4.2906,4.2945,4.2968,4.3012,4.3048,4.308,4.3091,4.3078,4.3076,4.3087,4.3091,4.3091,4.3093,4.2956,4.3073,4.3072,4.3072,4.3071,4.3071,4.2787,4.282,4.2844,4.2881,4.2899,4.2923,4.2954,4.2963,4.2996,4.3033,4.3029,4.3072,4.3094,4.3135,4.3149,4.3183,4.3167,4.3183,4.3187,4.3192,4.3197,4.3084,4.3188,4.3188,4.3187,4.3187,4.3187,0,4.289,4.2905,4.2939,4.2975,4.3004,4.299,4.3017,4.3042,4.3081,4.3103,4.3132,4.3177,4.3212,4.3224,4.3258,4.3282,4.3277,4.3291,4.329,4.3293,4.3208,4.3196,4.3295,4.3295,4.3295,4.3295,4.3295,4.3295,4.2947,4.3002,4.3006,4.3069,4.3083,4.3126,4.3143,4.3164,4.3182,4.3233,4.3263,4.3271,4.3288,4.3324,4.3355,4.3358,4.3371,4.3389,4.3389,4.331,4.3299,4.3288,4.3277,4.3391,4.3391,4.3471,4.3471,4.3472]}]]